This is the latest recevied weather packets stored in our database for station/object KR8N. If no packets are shown the sender has not sent any weather packets the latest 10 day(s).
| Time | Temp. | Humidity | Pressure | Rain* | Wind** | Luminosity | Snow |
|---|---|---|---|---|---|---|---|
| 1777242358 | 18.89° C | 56% | 1019.5 hPa | 0 mm | - | 189 W/m² | - |
| 1777242055 | 19.44° C | 54% | 1019.5 hPa | 0 mm | - | 207 W/m² | - |
| 1777241753 | 19.44° C | 54% | 1019.5 hPa | 0 mm | - | 218 W/m² | - |
| 1777241449 | 19.44° C | 56% | 1019.5 hPa | 0 mm | - | 235 W/m² | - |
| 1777241147 | 20° C | 52% | 1019.7 hPa | 0 mm | - | 251 W/m² | - |
| 1777240845 | 20° C | 54% | 1019.5 hPa | 0 mm | - | 268 W/m² | - |
| 1777240543 | 19.44° C | 56% | 1019.3 hPa | 0 mm | - | 285 W/m² | - |
| 1777240239 | 19.44° C | 55% | 1019.2 hPa | 0 mm | - | 301 W/m² | - |
| 1777239937 | 19.44° C | 55% | 1019.2 hPa | 0 mm | - | 320 W/m² | - |
| 1777239635 | 19.44° C | 57% | 1019 hPa | 0 mm | - | 334 W/m² | - |
| 1777239331 | 20° C | 56% | 1019.2 hPa | 0 mm | - | 356 W/m² | - |
| 1777239028 | 19.44° C | 54% | 1019 hPa | 0 mm | - | 374 W/m² | - |
| 1777238725 | 19.44° C | 54% | 1018.9 hPa | 0 mm | - | 392 W/m² | - |
| 1777238421 | 19.44° C | 58% | 1018.8 hPa | 0 mm | - | 411 W/m² | - |
| 1777238118 | 19.44° C | 55% | 1018.9 hPa | 0 mm | - | 431 W/m² | - |
| 1777237815 | 19.44° C | 56% | 1018.7 hPa | 0 mm | - | 449 W/m² | - |
| 1777237512 | 20° C | 57% | 1018.9 hPa | 0 mm | - | 319 W/m² | - |
| 1777237209 | 19.44° C | 58% | 1018.8 hPa | 0 mm | - | 483 W/m² | - |
| 1777236907 | 20° C | 53% | 1018.8 hPa | 0 mm | - | 501 W/m² | - |
| 1777236603 | 19.44° C | 54% | 1018.8 hPa | 0 mm | - | 518 W/m² | - |
| 1777236298 | 20° C | 54% | 1018.7 hPa | 0 mm | - | 537 W/m² | - |
| 1777235995 | 20° C | 56% | 1018.7 hPa | 0 mm | - | 553 W/m² | - |
| 1777235691 | 19.44° C | 55% | 1018.8 hPa | 0 mm | - | 573 W/m² | - |
| 1777235388 | 19.44° C | 59% | 1018.8 hPa | 0 mm | - | 587 W/m² | - |
| 1777235084 | 19.44° C | 56% | 1018.7 hPa | 0 mm | - | 606 W/m² | - |
* Rain latest hour (hover to see other rain measurements)
** Current wind speed in m/s (hover to see current wind gust speed)